Location: Mentone
(34.5413°N, 85.5351°W)
Time: 00:20:20
(UTC-05:00)

Cosmos 2026 Rocket - Visible Passes

Search period start: 25 June 2017 00:00
Search period end: 05 July 2017 00:00
Orbit: 939 x 1002 km, 82.9° (Epoch: 24 June)

Date Brightness Start Highest point End Pass type
(mag) Time Alt. Az. Time Alt. Az. Time Alt. Az.
25 Jun 4.8 01:53:03 37° ESE 01:53:50 38° E 01:59:20 10° NNE visible
25 Jun 5.1 03:37:37 23° W 03:39:07 25° WNW 03:44:02 10° NNW visible
26 Jun 3.9 02:16:59 67° SE 02:17:34 73° E 02:23:36 10° N visible
26 Jun 5.8 04:01:33 12° W 04:03:25 13° WNW 04:06:08 10° NW visible
27 Jun 6.0 00:56:20 15° E 00:56:52 15° E 01:00:10 10° NE visible
27 Jun 3.9 02:40:54 58° WSW 02:41:27 61° W 02:47:27 10° N visible
28 Jun 5.2 01:20:14 29° E 01:20:24 29° E 01:25:31 10° NNE visible
28 Jun 4.8 03:04:48 32° W 03:05:30 32° WNW 03:10:53 10° NNW visible
29 Jun 4.2 01:44:08 56° E 01:44:08 56° E 01:50:00 10° NNE visible
29 Jun 5.5 03:28:41 17° W 03:29:42 17° WNW 03:33:37 10° NNW visible
30 Jun 6.2 00:23:26 11° E 00:23:32 11° E 00:25:08 10° ENE visible
30 Jun 3.8 02:08:00 79° WNW 02:08:00 79° WNW 02:14:01 10° N visible
01 Jul 5.5 00:47:18 22° E 00:47:18 22° E 00:51:33 10° NE visible
01 Jul 4.5 02:31:52 42° W 02:31:53 42° W 02:37:37 10° N visible
02 Jul 4.7 01:11:09 41° ENE 01:11:09 41° ENE 01:16:18 10° NNE visible
02 Jul 5.3 02:55:43 23° W 02:56:02 23° WNW 03:00:42 10° NNW visible
03 Jul 4.0 01:34:59 72° NE 01:34:59 72° NE 01:40:29 10° N visible
03 Jul 5.9 03:19:33 11° WNW 03:20:21 12° WNW 03:22:22 10° NW visible
04 Jul 5.9 00:14:15 17° ENE 00:14:15 17° ENE 00:17:23 10° NE visible
04 Jul 4.3 01:58:49 53° WNW 01:58:49 53° WNW 02:04:16 10° N visible
